User: anonymous   Login
Location: Unspecified
(0.0000°N, 0.0000°E)
Time: 08:58:59
(UTC+00:00)
Language:

TATIANA - Orbit

View from above orbital plane
View from above orbital plane
View from above satellite
View from above satellite

Ground track
Ground track

The orbit data is extracted from the following two-line orbital elements,

1 28523U 05002C   19345.64312990  .00000070  00000-0  46202-4 0  9998
2 28523  82.9513  44.7485 0036607 281.8303  77.8755 13.87496179753974
Epoch (UTC): 11 December 2019 15:26:06
Eccentricity: 0.0036607
inclination: 82.9513°
perigee height: 910 km
apogee height: 964 km
right ascension of ascending node: 44.7485°
argument of perigee: 281.8303°
revolutions per day: 13.87496179
mean anomaly at epoch: 77.8755°
orbit number at epoch: 75397

The dashed part of the orbit path shows where the satellite is in the earth's shadow,  

DLR